Location: De Har
(53.3413°N, 6.6858°E)
Time: 08:35:25
(UTC+00:00)

Cosmos 1271 Rocket - Pass Details

Date: 22 April 2026
Orbit: 423 x 449 km, 81.2° (Epoch: 15 May)

Event Time Altitude Azimuth Distance (km) Brightness Sun altitude
Exits shadow 01:29:05 25° 128° (SE) 948 3.9 -19.9°
Maximum altitude 01:30:09 31° 94° (E) 827 3.9 -19.8°
Drops below altitude 10° 01:33:15 10° 31° (NNE) 1,595 6.4 -19.6°
Sets 01:35:28 0° 21° (NNE) 2,471 7.7 -19.4°
